New Bern, NC

10:38 AM EDT on June 29, 2017 (GMT -0400)
Craven County Regional

Weather History for KEWN - June, 2013

Change the Weather History Date:

Thursday, June 13, 2013

  Actual Average Record
Temperature  
Mean Temperature 85 °F 77 °F  
Max Temperature 98 °F 87 °F 98 °F (2002)
Min Temperature 71 °F 67 °F 54 °F (1950)
Degree Days  
Heating Degree Days 0 0  
Month to date heating degree days 0 0  
Since 1 June heating degree days 0 0  
Since 1 July heating degree days 2585 2701  
Cooling Degree Days 20 12  
Month to date cooling degree days 182 135  
Year to date cooling degree days 438 378  
Since 1 June cooling degree days 182 135  
Growing Degree Days 34 (Base 50)    
Moisture  
Dew Point 72 °F    
Average Humidity 70    
Maximum Humidity 91    
Minimum Humidity 48    
Precipitation  
Precipitation 0.26 in 0.15 in 3.06 in (1953)
Month to date precipitation 3.70 1.93  
Year to date precipitation 15.05 21.32  
Snow  
Snow 0.00 in - - ()
Month to date snowfall 0.0  
Since 1 July snowfall T  
Snow Depth 0.00 in    
Sea Level Pressure  
Sea Level Pressure 29.75 in    
Wind  
Wind Speed 9 mph (SW)    
Max Wind Speed 24 mph    
Max Gust Speed 35 mph    
Visibility 9 miles    
Events Rain , Thunderstorm    
T = Trace of Precipitation, MM = Missing Value Source: NWS Daily Summary

Daily Weather History Graph

Daily Weather History Graph

Search for Another Location

Airport or City:

Trip Planner

Search our weather history database for the weather conditions in past years. The results will help you decide how hot, cold, wet, or windy it might be!

Date:

Astronomy

Jun. 13, 2013 Rise Set
Actual Time 5:53 AM EDT 8:23 PM EDT
Civil Twilight 5:23 AM EDT 8:52 PM EDT
Nautical Twilight 4:47 AM EDT 9:29 PM EDT
Astronomical Twilight 4:06 AM EDT 10:10 PM EDT
Moon 10:19 AM EDT (6/13) 11:38 PM EDT (6/13)
Length of Visible Light 15h 29m
Length of Day
14h 29m
Waxing Crescent, 21% of the Moon is Illuminated
Jun 13
Waxing Crescent
Jun 16
First Quarter
Jun 23
Full
Jun 30
Last Quarter
Jul 8
New

Hourly Weather History & Observations

Time (EDT) Temp. Heat Index Dew Point Humidity Pressure Visibility Wind Dir Wind Speed Gust Speed Precip Events Conditions
12:54 AM 79.0 °F - 75.0 °F 88% 29.89 in 8.0 mi SW 5.8 mph - N/A   Clear
1:54 AM 79.0 °F - 75.0 °F 88% 29.88 in 8.0 mi SW 3.5 mph - N/A   Clear
2:54 AM 78.1 °F - 73.9 °F 87% 29.87 in 7.0 mi SSW 5.8 mph - N/A   Clear
3:54 AM 78.1 °F - 73.9 °F 87% 29.86 in 8.0 mi SSW 5.8 mph - N/A   Clear
4:54 AM 78.1 °F - 73.9 °F 87% 29.86 in 8.0 mi SW 5.8 mph - N/A   Clear
5:54 AM 78.1 °F - 73.0 °F 84% 29.84 in 9.0 mi SSW 6.9 mph - N/A   Clear
6:54 AM 79.0 °F - 73.9 °F 84% 29.84 in 9.0 mi SW 6.9 mph - N/A   Clear
7:54 AM 82.0 °F 87.9 °F 73.9 °F 76% 29.83 in 10.0 mi SW 6.9 mph - N/A   Clear
8:54 AM 87.1 °F 96.3 °F 75.0 °F 67% 29.81 in 10.0 mi SSW 10.4 mph - N/A   Clear
9:54 AM 90.0 °F 101.3 °F 75.9 °F 63% 29.81 in 10.0 mi SSW 11.5 mph - N/A   Clear
10:54 AM 93.0 °F 105.3 °F 75.9 °F 57% 29.79 in 10.0 mi SW 13.8 mph 20.7 mph N/A   Clear
11:54 AM 96.1 °F 107.1 °F 73.9 °F 49% 29.77 in 10.0 mi SW 10.4 mph 17.3 mph N/A   Clear
12:54 PM 96.1 °F 108.6 °F 75.0 °F 51% 29.74 in 10.0 mi SSW 16.1 mph 20.7 mph N/A   Clear
1:54 PM 98.1 °F 111.2 °F 75.0 °F 48% 29.71 in 10.0 mi SSW 11.5 mph 26.5 mph N/A   Clear
2:54 PM 97.0 °F 109.3 °F 75.0 °F 49% 29.68 in 10.0 mi South 16.1 mph 26.5 mph N/A   Clear
3:54 PM 96.1 °F 109.4 °F 75.9 °F 52% 29.66 in 10.0 mi SSW 15.0 mph 24.2 mph N/A   Clear
4:54 PM 95.0 °F 108.2 °F 75.9 °F 54% 29.64 in 10.0 mi SSW 16.1 mph 23.0 mph N/A   Clear
5:54 PM 93.0 °F 106.7 °F 77.0 °F 59% 29.62 in 10.0 mi SSW 13.8 mph 21.9 mph N/A   Clear
6:54 PM 91.9 °F 105.9 °F 77.0 °F 62% 29.64 in 10.0 mi SSW 12.7 mph - N/A   Clear
7:54 PM 89.1 °F 101.4 °F 77.0 °F 67% 29.68 in 10.0 mi WNW 11.5 mph - N/A   Partly Cloudy
8:03 PM 87.8 °F 88.5 °F 62.6 °F 43% 29.69 in 10.0 mi WNW 17.3 mph 34.5 mph N/A Thunderstorm Mostly Cloudy
8:14 PM 84.2 °F 85.0 °F 62.6 °F 48% 29.72 in 8.0 mi NW 12.7 mph 24.2 mph 0.01 in Rain , Thunderstorm Light Rain
8:54 PM 73.9 °F - 66.0 °F 76% 29.70 in 10.0 mi SW 6.9 mph 17.3 mph 0.09 in Rain Light Rain
9:01 PM 73.4 °F - 66.2 °F 78% 29.69 in 10.0 mi SW 4.6 mph - 0.00 in Rain , Thunderstorm Light Rain
9:15 PM 73.4 °F - 66.2 °F 78% 29.69 in 10.0 mi SSW 8.1 mph - 0.00 in Rain Light Rain
9:54 PM 72.0 °F - 66.9 °F 84% 29.72 in 10.0 mi SW 5.8 mph - 0.00 in   Partly Cloudy
10:54 PM 73.9 °F - 66.0 °F 76% 29.69 in 10.0 mi WSW 3.5 mph - N/A   Partly Cloudy
11:22 PM 71.6 °F - 66.2 °F 83% 29.74 in 3.0 mi SW 9.2 mph - 0.08 in Rain , Thunderstorm Thunderstorms and Rain
11:52 PM 71.6 °F - 68.0 °F 88% 29.74 in 10.0 mi SSW 5.8 mph - 0.12 in Rain , Thunderstorm Light Thunderstorms and Rain
11:54 PM 72.0 °F - 68.0 °F 87% 29.75 in 10.0 mi SSW 6.9 mph - 0.12 in Rain , Thunderstorm Light Thunderstorms and Rain